| time (UTC) | temp C | wind direction | speed KPH | gust KPH | rain 1hr cm | rain 24hr cm | rain mn cm | humidity % | barometer mb |
| 20260503220053 | 8 | 319 | 11.3 | 29.0 | 0.00 | 0.00 | 0.00 | 43 | 1007.4 |
| 20260503214551 | 8 | 304 | 9.7 | 25.7 | 0.00 | 0.00 | 0.00 | 49 | 1007.3 |
| 20260503213049 | 7 | 278 | 3.2 | 14.5 | 0.00 | 0.00 | 0.00 | 49 | 1007.3 |
| 20260503211548 | 7 | 331 | 12.9 | 20.9 | 0.00 | 0.00 | 0.00 | 48 | 1007.4 |
| 20260503210048 | 7 | 271 | 12.9 | 24.1 | 0.00 | 0.00 | 0.00 | 50 | 1007.4 |
| 20260503204552 | 7 | 323 | 6.4 | 27.4 | 0.00 | 0.00 | 0.00 | 50 | 1007.3 |
| 20260503203046 | 7 | 296 | 8.0 | 22.5 | 0.00 | 0.00 | 0.00 | 50 | 1007.4 |
| 20260503201546 | 7 | 302 | 12.9 | 33.8 | 0.00 | 0.00 | 0.00 | 48 | 1007.4 |
| 20260503200045 | 8 | 235 | 9.7 | 24.1 | 0.00 | 0.00 | 0.00 | 48 | 1007.3 |
| 20260503194546 | 7 | 257 | 9.7 | 29.0 | 0.00 | 0.00 | 0.00 | 51 | 1007.6 |
| 20260503193042 | 7 | 291 | 9.7 | 29.0 | 0.00 | 0.00 | 0.00 | 49 | 1007.6 |
| 20260503191540 | 7 | 266 | 6.4 | 22.5 | 0.00 | 0.00 | 0.00 | 53 | 1007.6 |
| 20260503190040 | 7 | 329 | 11.3 | 29.0 | 0.00 | 0.00 | 0.00 | 49 | 1007.9 |
| 20260503184557 | 7 | 281 | 12.9 | 32.2 | 0.00 | 0.00 | 0.00 | 49 | 1007.8 |
| 20260503183042 | 7 | 311 | 11.3 | 25.7 | 0.00 | 0.00 | 0.00 | 49 | 1007.8 |
| 20260503181540 | 7 | 283 | 11.3 | 25.7 | 0.00 | 0.00 | 0.00 | 49 | 1007.7 |
| 20260503180040 | 7 | 301 | 14.5 | 33.8 | 0.00 | 0.00 | 0.00 | 49 | 1007.7 |
| 20260503174537 | 7 | 240 | 9.7 | 22.5 | 0.00 | 0.00 | 0.00 | 55 | 1007.7 |
| 20260503173038 | 6 | 226 | 8.0 | 24.1 | 0.00 | 0.00 | 0.00 | 56 | 1007.8 |
| 20260503171557 | 6 | 267 | 8.0 | 30.6 | 0.00 | 0.00 | 0.00 | 58 | 1007.5 |
| 20260503081509 | 2 | 305 | 8.0 | 12.9 | 0.00 | 0.10 | 0.00 | 87 | 1008.5 |
| 20260503071611 | 2 | 348 | 0.0 | 1.6 | 0.00 | 0.15 | 0.00 | 91 | 1008.9 |
| 20260503054559 | 2 | 322 | 0.0 | 0.0 | 0.00 | 0.23 | 0.00 | 91 | 1009.6 |
| 20260503053049 | 2 | 322 | 0.0 | 0.0 | 0.00 | 0.23 | 0.00 | 91 | 1009.8 |
| 20260503051547 | 2 | 322 | 0.0 | 0.0 | 0.00 | 0.23 | 0.00 | 91 | 1009.9 |
| 20260503050048 | 2 | 322 | 0.0 | 0.0 | 0.00 | 0.23 | 0.00 | 91 | 1010.0 |
| 20260503044552 | 2 | 322 | 0.0 | 0.0 | 0.00 | 0.36 | 0.00 | 91 | 1010.1 |
| 20260503043048 | 2 | 322 | 0.0 | 0.0 | 0.00 | 0.36 | 0.00 | 91 | 1010.2 |
| 20260503041543 | 2 | 322 | 0.0 | 0.0 | 0.00 | 0.36 | 0.00 | 90 | 1010.3 |
| 20260503040041 | 2 | 321 | 0.0 | 0.0 | 0.00 | 0.36 | 0.00 | 89 | 1010.4 |
| 20260503034538 | 2 | 360 | 0.0 | 0.0 | 0.00 | 0.36 | 0.36 | 89 | 1010.5 |
| 20260503033035 | 2 | 360 | 0.0 | 0.0 | 0.00 | 0.36 | 0.36 | 88 | 1010.6 |
| 20260503031535 | 2 | 360 | 0.0 | 0.0 | 0.00 | 0.36 | 0.36 | 88 | 1010.7 |
| 20260503030032 | 2 | 348 | 0.0 | 0.0 | 0.00 | 0.36 | 0.36 | 88 | 1010.7 |
| 20260503024532 | 2 | 15 | 0.0 | 0.0 | 0.00 | 0.36 | 0.36 | 87 | 1010.7 |
| 20260503023030 | 3 | 335 | 0.0 | 0.0 | 0.00 | 0.36 | 0.36 | 86 | 1010.7 |
| 20260503021529 | 3 | 335 | 0.0 | 0.0 | 0.00 | 0.36 | 0.36 | 86 | 1010.8 |
| 20260503020028 | 3 | 360 | 1.6 | 11.3 | 0.00 | 0.36 | 0.36 | 86 | 1010.8 |
| 20260503014527 | 3 | 343 | 0.0 | 8.0 | 0.00 | 0.36 | 0.36 | 85 | 1011.0 |
| 20260503013025 | 3 | 355 | 0.0 | 8.0 | 0.00 | 0.36 | 0.36 | 84 | 1010.9 |
| 20260503011524 | 3 | 338 | 0.0 | 6.4 | 0.00 | 0.36 | 0.36 | 84 | 1010.9 |
| 20260503010027 | 4 | 324 | 0.0 | 6.4 | 0.00 | 0.36 | 0.36 | 83 | 1010.8 |
| 20260503004519 | 4 | 327 | 0.0 | 14.5 | 0.00 | 0.36 | 0.36 | 82 | 1010.7 |
| 20260503003019 | 5 | 333 | 0.0 | 9.7 | 0.00 | 0.36 | 0.36 | 81 | 1010.6 |
| 20260503001517 | 5 | 349 | 0.0 | 8.0 | 0.00 | 0.36 | 0.36 | 78 | 1010.5 |
| 20260503000031 | 6 | 360 | 3.2 | 14.5 | 0.00 | 0.36 | 0.36 | 76 | 1010.3 |
| 20260502234515 | 6 | 360 | 6.4 | 22.5 | 0.00 | 0.36 | 0.36 | 72 | 1010.1 |
| 20260502233013 | 7 | 348 | 9.7 | 19.3 | 0.00 | 0.36 | 0.36 | 62 | 1009.9 |
| 20260502231513 | 7 | 221 | 3.2 | 14.5 | 0.00 | 0.36 | 0.36 | 54 | 1009.8 |
| 20260502230013 | 8 | 206 | 1.6 | 20.9 | 0.00 | 0.36 | 0.36 | 52 | 1009.7 |
| 20260502224515 | 8 | 192 | 1.6 | 19.3 | 0.00 | 0.36 | 0.36 | 51 | 1009.4 |
| 20260502223025 | 9 | 282 | 4.8 | 16.1 | 0.00 | 0.36 | 0.36 | 51 | 1009.3 |
| 20260502221511 | 9 | 355 | 4.8 | 16.1 | 0.00 | 0.36 | 0.36 | 50 | 1009.2 |